Resoconti di bolidi

Sep 01, 2021 - Sep 30, 2021
Trovati resoconti: 3714  in September 2021  Pagina 74 / 75
IDDate e tempo T.U. (Tempo Universale)Data e tempo localeRegioneCittàStatoDur.MagnitudineSuono differitoSuono contemporaneoFrag.OsservatoreLivello di esperienza
Evento 5263-2021
5263a2021-09-01 19:20 UT2021-09-01 21:20 CESTFR SerrisÎle-de-France≈1,5s -5---Faïza M 2
Evento 5262-2021
5262a2021-09-01 18:18 UT2021-09-01 11:18 PDTUS Manhattan BeachCA≈3,5s -8-??Sam B 1
Evento 5261-2021
5261a2021-09-01 16:05 UT2021-09-02 00:05 CSTCN 宁波市浙江省≈1,5s -8??-ZhangB 3
5261b2021-09-01 16:05 UT2021-09-02 00:05 CSTCN Shanghai<1s -4???TravisS 3
5261c2021-09-01 16:05 UT2021-09-02 00:05 CSTCN 绍兴市浙江省<1s -4???BINW 4
Evento 5260-2021
5260a2021-09-01 15:36 UT2021-09-01 09:36 MDTCA LethbridgeAlberta≈3,5s -11---JerryS 4
Evento 5259-2021
5259a2021-09-01 12:32 UT2021-09-01 05:32 PDTUS OlanchaCA≈1,5s -8??-MikeL 5
Evento 5258-2021
5258a2021-09-01 12:30 UT2021-09-01 20:30 WITAID Kalimantan Timur≈3,5s -12---CallistaH 1
Evento 5257-2021
5257a2021-09-01 12:10 UT2021-09-01 20:10 AWSTAU YallingupWestern Australia≈1,5s -15--?AntonellaH 1
Evento 5256-2021
5256a2021-09-01 10:45 UT2021-09-01 06:45 EDTUS HamiltonOH≈3,5s -20--?StephanieS 1
5256b2021-09-01 10:03 UT2021-09-01 06:03 EDTUS IndianapolisIN≈7,5s -14??-JonathanC 3
5256c2021-09-01 10:10 UT2021-09-01 06:10 EDTUS PalmyraIN≈3,5s -13---MarkM 2
Evento 5255-2021
5255a2021-09-01 09:45 UT2021-09-01 03:45 CSTCA SaskatoonSaskatchewan≈1,5s -11??BettyV 4
Evento 5252-2021
5252a2021-09-01 05:16 UT2021-09-01 00:16 CDTUS Grand IslandNE≈3,5s -15---JasonH 2
Evento 5251-2021
5251a2021-09-01 05:01 UT2021-09-01 00:01 CDTUS BooneIA≈3,5s -12--NathanialB 2
Evento 5244-2021
5244a2021-09-03 04:35 UT2021-09-03 01:35 -3 fusi orari BR São Paulo≈3,5s -11-?-Fernanda S 2
Evento 5243-2021
5243a2021-09-01 03:50 UT2021-09-01 00:50 -3 fusi orari BR Minas Gerais≈3,5s -9---NicolasA 4
Evento 5240-2021
5240a2021-09-01 02:40 UT2021-09-01 04:40 CESTDE HerbornHessen≈3,5s -22---BirgitH 2
Evento 5238-2021
5238a2021-09-01 01:12 UT2021-09-01 03:12 CESTCH GamsenWallis≈1,5s 0???RobertG 4
Evento 5235-2021
5235a2021-08-31 22:28 UT2021-09-01 00:28 CESTBE Dilsen-StokkemVlaanderen≈1,5s -27--?BenD 1
5235b2021-08-31 22:29 UT2021-09-01 00:29 CESTNL Ohé en LaakLimburg≈1,5s -10---JohnK 3
Evento 5232-2021
5232b2021-08-31 22:30 UT2021-09-01 00:30 CESTDK Kvanløse≈20s -5??-LindaP 1
5232c2021-08-31 22:30 UT2021-09-01 00:30 CESTDK Ikast≈1,5s 0--?Christina SigN 1
Evento 5231-2021
5231b2021-08-31 22:10 UT2021-09-01 00:10 CESTFR La RegrippièrePays de la Loire≈3,5s -10---ArielS 1
Evento 5230-2021
5230a2021-08-31 21:51 UT2021-09-01 00:51 EESTLT KurmaičiaiKlaipėdos apskritis≈1,5s -8--?JovitaR 1
Evento 5229-2021
5229a2021-08-31 21:50 UT2021-09-01 00:50 EESTLT MažeikiaiTelšiai County≈1,5s -12--?JovitaR 1
Evento 5228-2021
5228a2021-08-31 21:45 UT2021-09-01 00:45 EESTGR Folegandros Municipality≈3,5s -7---NellyF 1
Evento 5225-2021
5225a2021-08-31 21:20 UT2021-09-01 01:20 4 fusi orari AZ NakhchivanNakhchivan Autonomous Republic<1s -4---ElşenH 3
Evento 5210-2021
5210a2021-09-01 03:15 UT2021-09-01 05:15 CESTFR SarryGrand Est≈3,5s 0??-Angélique G 3
5210aa2021-09-01 03:13 UT2021-09-01 05:13 CESTAT Maria LuggauKärnten≈3,5s -10--JohannesO 2
5210ab2021-09-01 03:13 UT2021-09-01 05:13 CESTDE OberwolfachBaden-Württemberg≈3,5s -11???MartinR 4
5210ac2021-09-01 03:13 UT2021-09-01 05:13 CESTFR MarckolsheimGrand Est≈3,5s -16???EricL 2
5210ad2021-09-01 03:13 UT2021-09-01 05:13 CESTCH WangenSchwyz≈7,5s -5--?ErwinS 4
5210ae2021-09-01 03:13 UT2021-09-01 05:13 CESTCH Collombey-MurazValais≈7,5s -9??-BenoîtB 4
5210af2021-09-01 03:13 UT2021-09-01 05:13 CESTDE KarlsruheBaden-Württemberg≈7,5s -16???UweB 3
5210ag2021-09-01 03:10 UT2021-09-01 05:10 CESTFR SouffelweyersheimGrand Est≈3,5s -17--cyrilleJ 3
5210ah2021-09-01 03:11 UT2021-09-01 05:11 CESTFR MulhouseGrand Est≈3,5s -5--AliceH 1
5210ai2021-09-01 03:15 UT2021-09-01 05:15 CESTFR Marolles-sur-SeineÎle-de-France≈7,5s 0--?Frédéric D 3
5210aj2021-09-01 03:15 UT2021-09-01 05:15 CESTFR La MaxeGrand Est≈3,5s -15--SamF 3
5210b2021-09-01 03:15 UT2021-09-01 05:15 CESTFR MulhouseGrand Est≈3,5s 0--KevinC 2
5210c2021-09-01 03:13 UT2021-09-01 05:13 CESTFR MetzGrand Est≈1,5s -18---EricF 1
5210d2021-09-01 03:13 UT2021-09-01 05:13 CESTFR BarrGrand Est≈3,5s -9-??PhilippeM 2
5210e2021-09-01 02:50 UT2021-09-01 04:50 CESTFR YutzGrand Est≈3,5s -13?-SandyJ 2
5210f2021-09-01 03:10 UT2021-09-01 05:10 CESTFR Miserey-SalinesBourgogne-Franche-Comté≈1,5s -5---StephyB 1
5210g2021-09-01 03:20 UT2021-09-01 05:20 CESTFR MulhouseGrand Est≈3,5s -13--BenjaminL 2
5210h2021-09-01 03:13 UT2021-09-01 05:13 CESTFR ThennelièresGrand Est≈3,5s -10??Jérôme B 1
5210i2021-09-01 03:11 UT2021-09-01 05:11 CESTDE SchmelzSaarland≈3,5s -10-?BenjaminB 1
5210j2021-09-01 03:12 UT2021-09-01 05:12 CESTFR Saint-PèreBourgogne-Franche-Comté≈3,5s -10??-SullivanM 2
5210k2021-09-01 03:13 UT2021-09-01 05:13 CESTDE BruchsalBaden-Württemberg≈3,5s -14--NikiW 2
5210l2021-09-01 03:12 UT2021-09-01 05:12 CESTFR Saint-Martin-du-TartreBourgogne-Franche-Comté≈3,5s -18-??Anne-LiseA 1